Wetterdaten: Sonntag, 09.08.2015
Datum Zeit Temp. A. Feuchte A. Luftdruck Regen Wind Richtung Richtung Sonnenschein ET UV Solar Taupunkt Windchill Windben Empfang
09.08.2015 00:04 23,7 C 61 % 1017,1 hPa 0,0 l/m 0,7 km/h (0 Bft) N 349 0 min 0,000 mm 0,0 UV-I 0 W/m 15,7 C 23,7 C 4,0 km/h (1 Bft) 0,00 %
09.08.2015 00:09 23,6 C 60 % 1017,2 hPa 0,0 l/m 0,7 km/h (0 Bft) W-NW 297 0 min 0,000 mm 0,0 UV-I 0 W/m 15,4 C 23,6 C 4,0 km/h (1 Bft) 0,00 %
09.08.2015 00:14 23,5 C 60 % 1017,1 hPa 0,0 l/m 4,3 km/h (1 Bft) W-SW 242 0 min 0,000 mm 0,0 UV-I 0 W/m 15,3 C 23,5 C 7,9 km/h (2 Bft) 0,00 %
09.08.2015 00:19 23,5 C 59 % 1017,1 hPa 0,0 l/m 6,8 km/h (2 Bft) W-SW 256 0 min 0,000 mm 0,0 UV-I 0 W/m 15,0 C 23,4 C 7,9 km/h (2 Bft) 0,00 %
09.08.2015 00:24 23,4 C 59 % 1017,1 hPa 0,0 l/m 0,0 km/h (0 Bft) NO 35 0 min 0,000 mm 0,0 UV-I 0 W/m 14,9 C 23,4 C 0,0 km/h (0 Bft) 0,00 %
09.08.2015 00:29 23,3 C 59 % 1017,3 hPa 0,0 l/m 0,0 km/h (0 Bft) NO 37 0 min 0,000 mm 0,0 UV-I 0 W/m 14,8 C 23,3 C 0,0 km/h (0 Bft) 0,00 %
09.08.2015 00:34 23,2 C 60 % 1017,1 hPa 0,0 l/m 0,0 km/h (0 Bft) NO 35 0 min 0,000 mm 0,0 UV-I 0 W/m 15,0 C 23,2 C 0,0 km/h (0 Bft) 0,00 %
09.08.2015 00:39 23,0 C 62 % 1017,2 hPa 0,0 l/m 0,0 km/h (0 Bft) N-NW 345 0 min 0,000 mm 0,0 UV-I 0 W/m 15,3 C 23,0 C 0,0 km/h (0 Bft) 0,00 %
09.08.2015 00:44 22,8 C 63 % 1017,3 hPa 0,0 l/m 0,0 km/h (0 Bft) N-NO 18 0 min 0,000 mm 0,0 UV-I 0 W/m 15,4 C 22,8 C 0,0 km/h (0 Bft) 0,00 %
09.08.2015 00:49 22,6 C 63 % 1017,5 hPa 0,0 l/m 1,4 km/h (1 Bft) W-NW 293 0 min 0,000 mm 0,0 UV-I 0 W/m 15,2 C 22,6 C 4,0 km/h (1 Bft) 0,00 %
09.08.2015 00:54 22,4 C 64 % 1017,6 hPa 0,0 l/m 1,8 km/h (1 Bft) W-SW 241 0 min 0,000 mm 0,0 UV-I 0 W/m 15,2 C 22,4 C 4,0 km/h (1 Bft) 0,00 %
09.08.2015 00:59 22,3 C 64 % 1017,7 hPa 0,0 l/m 0,0 km/h (0 Bft) NO 39 0 min 0,000 mm 0,0 UV-I 0 W/m 15,2 C 22,3 C 0,0 km/h (0 Bft) 0,00 %
09.08.2015 01:04 22,4 C 64 % 1017,6 hPa 0,0 l/m 0,0 km/h (0 Bft) NO 39 0 min 0,000 mm 0,0 UV-I 0 W/m 15,2 C 22,4 C 0,0 km/h (0 Bft) 0,00 %
09.08.2015 01:09 22,2 C 65 % 1017,7 hPa 0,0 l/m 0,0 km/h (0 Bft) N 354 0 min 0,000 mm 0,0 UV-I 0 W/m 15,3 C 22,2 C 0,0 km/h (0 Bft) 0,00 %
09.08.2015 01:14 22,1 C 65 % 1017,5 hPa 0,0 l/m 0,0 km/h (0 Bft) NO 47 0 min 0,000 mm 0,0 UV-I 0 W/m 15,2 C 22,1 C 0,0 km/h (0 Bft) 0,00 %
09.08.2015 01:19 21,9 C 66 % 1017,6 hPa 0,0 l/m 0,0 km/h (0 Bft) NO 46 0 min 0,000 mm 0,0 UV-I 0 W/m 15,3 C 21,9 C 0,0 km/h (0 Bft) 0,00 %
09.08.2015 01:24 21,8 C 66 % 1017,5 hPa 0,0 l/m 0,0 km/h (0 Bft) N-NO 27 0 min 0,000 mm 0,0 UV-I 0 W/m 15,2 C 21,8 C 0,0 km/h (0 Bft) 0,00 %
09.08.2015 01:29 21,6 C 67 % 1017,5 hPa 0,0 l/m 0,0 km/h (0 Bft) NO 47 0 min 0,000 mm 0,0 UV-I 0 W/m 15,2 C 21,6 C 0,0 km/h (0 Bft) 0,00 %
09.08.2015 01:34 21,5 C 68 % 1017,5 hPa 0,0 l/m 0,0 km/h (0 Bft) NO 45 0 min 0,000 mm 0,0 UV-I 0 W/m 15,3 C 21,5 C 0,0 km/h (0 Bft) 0,00 %
09.08.2015 01:39 21,4 C 68 % 1017,5 hPa 0,0 l/m 0,0 km/h (0 Bft) NO 47 0 min 0,000 mm 0,0 UV-I 0 W/m 15,2 C 21,4 C 0,0 km/h (0 Bft) 0,00 %
09.08.2015 01:44 21,3 C 69 % 1017,4 hPa 0,0 l/m 0,0 km/h (0 Bft) NO 36 0 min 0,000 mm 0,0 UV-I 0 W/m 15,4 C 21,3 C 0,0 km/h (0 Bft) 0,00 %
09.08.2015 01:49 21,2 C 69 % 1017,6 hPa 0,0 l/m 0,0 km/h (0 Bft) NO 47 0 min 0,000 mm 0,0 UV-I 0 W/m 15,3 C 21,2 C 0,0 km/h (0 Bft) 0,00 %
09.08.2015 01:54 21,1 C 69 % 1017,6 hPa 0,0 l/m 0,0 km/h (0 Bft) NO 46 0 min 0,000 mm 0,0 UV-I 0 W/m 15,2 C 21,1 C 0,0 km/h (0 Bft) 0,00 %
09.08.2015 01:59 21,0 C 70 % 1017,6 hPa 0,0 l/m 0,0 km/h (0 Bft) NO 35 0 min 0,000 mm 0,0 UV-I 0 W/m 15,3 C 21,0 C 0,0 km/h (0 Bft) 0,00 %
09.08.2015 02:04 21,0 C 70 % 1017,8 hPa 0,0 l/m 0,0 km/h (0 Bft) N-NO 20 0 min 0,000 mm 0,0 UV-I 0 W/m 15,3 C 21,0 C 0,0 km/h (0 Bft) 0,00 %
09.08.2015 02:09 21,0 C 70 % 1017,7 hPa 0,0 l/m 0,0 km/h (0 Bft) N-NO 29 0 min 0,000 mm 0,0 UV-I 0 W/m 15,3 C 21,0 C 0,0 km/h (0 Bft) 0,00 %
09.08.2015 02:14 21,0 C 70 % 1017,5 hPa 0,0 l/m 0,0 km/h (0 Bft) NO 42 0 min 0,000 mm 0,0 UV-I 0 W/m 15,3 C 21,0 C 0,0 km/h (0 Bft) 0,00 %
09.08.2015 02:19 21,0 C 70 % 1017,6 hPa 0,0 l/m 0,0 km/h (0 Bft) N-NO 32 0 min 0,000 mm 0,0 UV-I 0 W/m 15,3 C 21,0 C 0,0 km/h (0 Bft) 0,00 %
09.08.2015 02:24 20,9 C 71 % 1017,6 hPa 0,0 l/m 0,0 km/h (0 Bft) NO 37 0 min 0,000 mm 0,0 UV-I 0 W/m 15,4 C 20,9 C 0,0 km/h (0 Bft) 0,00 %
09.08.2015 02:29 20,9 C 72 % 1017,6 hPa 0,0 l/m 0,0 km/h (0 Bft) NO 45 0 min 0,000 mm 0,0 UV-I 0 W/m 15,7 C 20,9 C 0,0 km/h (0 Bft) 0,00 %
09.08.2015 02:34 20,8 C 72 % 1017,6 hPa 0,0 l/m 0,0 km/h (0 Bft) NO 43 0 min 0,000 mm 0,0 UV-I 0 W/m 15,6 C 20,8 C 0,0 km/h (0 Bft) 0,00 %
09.08.2015 02:39 20,6 C 72 % 1017,6 hPa 0,0 l/m 0,0 km/h (0 Bft) NO 46 0 min 0,000 mm 0,0 UV-I 0 W/m 15,4 C 20,6 C 0,0 km/h (0 Bft) 0,00 %
09.08.2015 02:44 20,5 C 73 % 1017,6 hPa 0,0 l/m 0,0 km/h (0 Bft) NO 46 0 min 0,000 mm 0,0 UV-I 0 W/m 15,5 C 20,5 C 0,0 km/h (0 Bft) 0,00 %
09.08.2015 02:49 20,4 C 73 % 1017,5 hPa 0,0 l/m 0,0 km/h (0 Bft) NO 54 0 min 0,000 mm 0,0 UV-I 0 W/m 15,4 C 20,4 C 0,0 km/h (0 Bft) 0,00 %
09.08.2015 02:54 20,3 C 74 % 1017,4 hPa 0,0 l/m 0,0 km/h (0 Bft) NO 49 0 min 0,000 mm 0,0 UV-I 0 W/m 15,5 C 20,3 C 0,0 km/h (0 Bft) 0,00 %
09.08.2015 02:59 20,1 C 74 % 1017,4 hPa 0,0 l/m 0,0 km/h (0 Bft) NO 42 0 min 0,000 mm 0,0 UV-I 0 W/m 15,3 C 20,1 C 0,0 km/h (0 Bft) 0,00 %
09.08.2015 03:04 20,0 C 76 % 1017,3 hPa 0,0 l/m 0,0 km/h (0 Bft) NO 52 0 min 0,000 mm 0,0 UV-I 0 W/m 15,6 C 20,0 C 0,0 km/h (0 Bft) 0,00 %
09.08.2015 03:09 19,8 C 76 % 1017,3 hPa 0,0 l/m 0,0 km/h (0 Bft) NO 47 0 min 0,000 mm 0,0 UV-I 0 W/m 15,4 C 19,8 C 0,0 km/h (0 Bft) 0,00 %
09.08.2015 03:14 19,7 C 77 % 1017,2 hPa 0,0 l/m 0,0 km/h (0 Bft) NO 41 0 min 0,000 mm 0,0 UV-I 0 W/m 15,5 C 19,7 C 0,0 km/h (0 Bft) 0,00 %
09.08.2015 03:19 19,6 C 77 % 1017,3 hPa 0,0 l/m 0,0 km/h (0 Bft) NO 36 0 min 0,000 mm 0,0 UV-I 0 W/m 15,5 C 19,6 C 0,0 km/h (0 Bft) 0,00 %
09.08.2015 03:24 19,3 C 78 % 1017,3 hPa 0,0 l/m 0,0 km/h (0 Bft) NO 40 0 min 0,000 mm 0,0 UV-I 0 W/m 15,4 C 19,3 C 0,0 km/h (0 Bft) 0,00 %
09.08.2015 03:29 19,3 C 79 % 1017,2 hPa 0,0 l/m 0,0 km/h (0 Bft) NO 45 0 min 0,000 mm 0,0 UV-I 0 W/m 15,6 C 19,3 C 0,0 km/h (0 Bft) 0,00 %
09.08.2015 03:34 19,1 C 80 % 1017,2 hPa 0,0 l/m 0,0 km/h (0 Bft) N-NO 27 0 min 0,000 mm 0,0 UV-I 0 W/m 15,6 C 19,1 C 0,0 km/h (0 Bft) 0,00 %
09.08.2015 03:39 19,0 C 81 % 1017,2 hPa 0,0 l/m 0,0 km/h (0 Bft) NO 42 0 min 0,000 mm 0,0 UV-I 0 W/m 15,7 C 19,0 C 0,0 km/h (0 Bft) 0,00 %
09.08.2015 03:44 18,9 C 81 % 1017,3 hPa 0,0 l/m 0,0 km/h (0 Bft) NO 47 0 min 0,000 mm 0,0 UV-I 0 W/m 15,6 C 18,9 C 0,0 km/h (0 Bft) 0,00 %
09.08.2015 03:49 18,8 C 81 % 1017,3 hPa 0,0 l/m 0,0 km/h (0 Bft) NO 46 0 min 0,000 mm 0,0 UV-I 0 W/m 15,5 C 18,8 C 0,0 km/h (0 Bft) 0,00 %
09.08.2015 03:55 18,7 C 82 % 1017,3 hPa 0,0 l/m 0,0 km/h (0 Bft) NO 46 0 min 0,000 mm 0,0 UV-I 0 W/m 15,6 C 18,7 C 0,0 km/h (0 Bft) 0,00 %
09.08.2015 04:00 18,5 C 82 % 1017,3 hPa 0,0 l/m 0,0 km/h (0 Bft) N 353 0 min 0,000 mm 0,0 UV-I 0 W/m 15,4 C 18,5 C 0,0 km/h (0 Bft) 0,00 %
09.08.2015 04:05 18,4 C 82 % 1017,3 hPa 0,0 l/m 0,0 km/h (0 Bft) NO 51 0 min 0,000 mm 0,0 UV-I 0 W/m 15,3 C 18,4 C 0,0 km/h (0 Bft) 0,00 %
09.08.2015 04:10 18,4 C 82 % 1017,3 hPa 0,0 l/m 0,0 km/h (0 Bft) NO 50 0 min 0,000 mm 0,0 UV-I 0 W/m 15,3 C 18,4 C 0,0 km/h (0 Bft) 0,00 %
09.08.2015 04:15 18,4 C 82 % 1017,1 hPa 0,0 l/m 0,0 km/h (0 Bft) NO 51 0 min 0,000 mm 0,0 UV-I 0 W/m 15,3 C 18,4 C 0,0 km/h (0 Bft) 0,00 %
09.08.2015 04:20 18,3 C 83 % 1017,1 hPa 0,0 l/m 0,0 km/h (0 Bft) O-NO 63 0 min 0,000 mm 0,0 UV-I 0 W/m 15,4 C 18,3 C 0,0 km/h (0 Bft) 0,00 %
09.08.2015 04:25 18,3 C 83 % 1017,3 hPa 0,0 l/m 0,0 km/h (0 Bft) O-NO 74 0 min 0,000 mm 0,0 UV-I 0 W/m 15,4 C 18,3 C 0,0 km/h (0 Bft) 0,00 %
09.08.2015 04:30 18,1 C 83 % 1017,1 hPa 0,0 l/m 0,0 km/h (0 Bft) NO 40 0 min 0,000 mm 0,0 UV-I 0 W/m 15,2 C 18,1 C 0,0 km/h (0 Bft) 0,00 %
09.08.2015 04:35 18,2 C 83 % 1017,0 hPa 0,0 l/m 0,0 km/h (0 Bft) NO 47 0 min 0,000 mm 0,0 UV-I 0 W/m 15,3 C 18,2 C 0,0 km/h (0 Bft) 0,00 %
09.08.2015 04:40 18,2 C 84 % 1017,0 hPa 0,0 l/m 0,0 km/h (0 Bft) NO 34 0 min 0,000 mm 0,0 UV-I 0 W/m 15,4 C 18,2 C 0,0 km/h (0 Bft) 0,00 %
09.08.2015 04:45 18,2 C 84 % 1017,0 hPa 0,0 l/m 0,0 km/h (0 Bft) NO 48 0 min 0,000 mm 0,0 UV-I 0 W/m 15,4 C 18,2 C 0,0 km/h (0 Bft) 0,00 %
09.08.2015 04:50 18,2 C 83 % 1017,0 hPa 0,0 l/m 0,0 km/h (0 Bft) NO 43 0 min 0,000 mm 0,0 UV-I 0 W/m 15,3 C 18,2 C 0,0 km/h (0 Bft) 0,00 %
09.08.2015 04:55 18,2 C 83 % 1016,9 hPa 0,0 l/m 0,0 km/h (0 Bft) NO 43 0 min 0,000 mm 0,0 UV-I 0 W/m 15,3 C 18,2 C 0,0 km/h (0 Bft) 0,00 %
09.08.2015 05:00 18,1 C 83 % 1017,2 hPa 0,0 l/m 0,0 km/h (0 Bft) NW 311 0 min 0,000 mm 0,0 UV-I 0 W/m 15,2 C 18,1 C 0,0 km/h (0 Bft) 0,00 %
09.08.2015 05:05 18,1 C 83 % 1017,3 hPa 0,0 l/m 0,0 km/h (0 Bft) W-SW 256 0 min 0,000 mm 0,0 UV-I 0 W/m 15,2 C 18,1 C 0,0 km/h (0 Bft) 0,00 %
09.08.2015 05:10 18,0 C 84 % 1017,4 hPa 0,0 l/m 0,0 km/h (0 Bft) NO 46 0 min 0,000 mm 0,0 UV-I 0 W/m 15,3 C 18,0 C 0,0 km/h (0 Bft) 0,00 %
09.08.2015 05:15 18,0 C 85 % 1017,4 hPa 0,0 l/m 0,0 km/h (0 Bft) NO 37 0 min 0,000 mm 0,0 UV-I 0 W/m 15,4 C 18,0 C 0,0 km/h (0 Bft) 0,00 %
09.08.2015 05:20 17,9 C 85 % 1017,3 hPa 0,0 l/m 0,0 km/h (0 Bft) NO 43 0 min 0,000 mm 0,0 UV-I 0 W/m 15,3 C 17,9 C 0,0 km/h (0 Bft) 0,00 %
09.08.2015 05:25 17,9 C 85 % 1017,4 hPa 0,0 l/m 0,0 km/h (0 Bft) NO 46 0 min 0,000 mm 0,0 UV-I 0 W/m 15,3 C 17,9 C 0,0 km/h (0 Bft) 0,00 %
09.08.2015 05:30 17,8 C 85 % 1017,5 hPa 0,0 l/m 0,0 km/h (0 Bft) NO 44 0 min 0,000 mm 0,0 UV-I 0 W/m 15,2 C 17,8 C 0,0 km/h (0 Bft) 0,00 %
09.08.2015 05:35 17,6 C 85 % 1017,6 hPa 0,0 l/m 0,0 km/h (0 Bft) NO 44 0 min 0,000 mm 0,0 UV-I 0 W/m 15,0 C 17,6 C 0,0 km/h (0 Bft) 0,00 %
09.08.2015 05:40 17,5 C 86 % 1017,4 hPa 0,0 l/m 0,0 km/h (0 Bft) O-NO 75 0 min 0,000 mm 0,0 UV-I 0 W/m 15,1 C 17,5 C 0,0 km/h (0 Bft) 0,00 %
09.08.2015 05:45 17,4 C 87 % 1017,4 hPa 0,0 l/m 0,0 km/h (0 Bft) NO 47 0 min 0,000 mm 0,0 UV-I 0 W/m 15,2 C 17,4 C 0,0 km/h (0 Bft) 0,00 %
09.08.2015 05:50 17,4 C 87 % 1017,4 hPa 0,0 l/m 0,0 km/h (0 Bft) NO 54 0 min 0,000 mm 0,0 UV-I 0 W/m 15,2 C 17,4 C 0,0 km/h (0 Bft) 0,00 %
09.08.2015 05:55 17,3 C 87 % 1017,4 hPa 0,0 l/m 0,0 km/h (0 Bft) NO 48 0 min 0,000 mm 0,0 UV-I 1 W/m 15,1 C 17,3 C 0,0 km/h (0 Bft) 0,00 %
09.08.2015 06:00 17,2 C 87 % 1017,6 hPa 0,0 l/m 0,0 km/h (0 Bft) NO 48 0 min 0,000 mm 0,0 UV-I 5 W/m 15,0 C 17,2 C 0,0 km/h (0 Bft) 0,00 %
09.08.2015 06:05 17,2 C 87 % 1017,4 hPa 0,0 l/m 0,0 km/h (0 Bft) NO 45 0 min 0,000 mm 0,0 UV-I 10 W/m 15,0 C 17,2 C 0,0 km/h (0 Bft) 0,00 %
09.08.2015 06:10 17,2 C 87 % 1017,5 hPa 0,0 l/m 0,0 km/h (0 Bft) NO 44 0 min 0,000 mm 0,0 UV-I 19 W/m 15,0 C 17,2 C 0,0 km/h (0 Bft) 0,00 %
09.08.2015 06:15 17,2 C 87 % 1017,5 hPa 0,0 l/m 0,0 km/h (0 Bft) O 80 0 min 0,000 mm 0,0 UV-I 26 W/m 15,0 C 17,2 C 0,0 km/h (0 Bft) 0,00 %
09.08.2015 06:20 17,4 C 87 % 1017,5 hPa 0,0 l/m 0,0 km/h (0 Bft) O 82 0 min 0,000 mm 0,0 UV-I 33 W/m 15,2 C 17,4 C 0,0 km/h (0 Bft) 0,00 %
09.08.2015 06:25 17,6 C 87 % 1017,6 hPa 0,0 l/m 0,0 km/h (0 Bft) NO 53 0 min 0,000 mm 0,0 UV-I 43 W/m 15,4 C 17,6 C 0,0 km/h (0 Bft) 0,00 %
09.08.2015 06:30 17,8 C 85 % 1017,7 hPa 0,0 l/m 0,0 km/h (0 Bft) NO 52 5 min 0,000 mm 0,0 UV-I 53 W/m 15,2 C 17,8 C 0,0 km/h (0 Bft) 0,00 %
09.08.2015 06:35 18,1 C 84 % 1017,5 hPa 0,0 l/m 0,0 km/h (0 Bft) NO 52 5 min 0,000 mm 0,0 UV-I 65 W/m 15,4 C 18,1 C 0,0 km/h (0 Bft) 0,00 %
09.08.2015 06:40 18,5 C 82 % 1017,4 hPa 0,0 l/m 0,0 km/h (0 Bft) NO 41 5 min 0,000 mm 0,0 UV-I 81 W/m 15,4 C 18,5 C 0,0 km/h (0 Bft) 0,00 %
09.08.2015 06:45 18,9 C 80 % 1017,4 hPa 0,0 l/m 0,0 km/h (0 Bft) NO 41 5 min 0,000 mm 0,0 UV-I 96 W/m 15,4 C 18,9 C 0,0 km/h (0 Bft) 0,00 %
09.08.2015 06:50 19,3 C 79 % 1017,4 hPa 0,0 l/m 0,0 km/h (0 Bft) NO 45 5 min 0,000 mm 0,0 UV-I 109 W/m 15,6 C 19,3 C 0,0 km/h (0 Bft) 0,00 %
09.08.2015 06:55 19,7 C 76 % 1017,3 hPa 0,0 l/m 0,0 km/h (0 Bft) NO 45 5 min 0,000 mm 0,0 UV-I 123 W/m 15,3 C 19,7 C 0,0 km/h (0 Bft) 0,00 %
09.08.2015 07:00 20,2 C 74 % 1017,2 hPa 0,0 l/m 0,0 km/h (0 Bft) NO 45 5 min 0,000 mm 0,0 UV-I 135 W/m 15,4 C 20,2 C 0,0 km/h (0 Bft) 0,00 %
09.08.2015 07:05 20,6 C 71 % 1017,4 hPa 0,0 l/m 0,0 km/h (0 Bft) NO 46 5 min 0,000 mm 0,0 UV-I 148 W/m 15,2 C 20,6 C 0,0 km/h (0 Bft) 0,00 %
09.08.2015 07:10 21,0 C 70 % 1017,2 hPa 0,0 l/m 0,0 km/h (0 Bft) NO 45 5 min 0,000 mm 1,0 UV-I 158 W/m 15,3 C 21,0 C 0,0 km/h (0 Bft) 0,00 %
09.08.2015 07:15 21,2 C 69 % 1017,4 hPa 0,0 l/m 0,0 km/h (0 Bft) NO 43 5 min 0,000 mm 1,0 UV-I 175 W/m 15,3 C 21,2 C 0,0 km/h (0 Bft) 0,00 %
09.08.2015 07:20 21,4 C 69 % 1017,5 hPa 0,0 l/m 0,0 km/h (0 Bft) NO 40 5 min 0,000 mm 1,0 UV-I 189 W/m 15,5 C 21,4 C 0,0 km/h (0 Bft) 0,00 %
09.08.2015 07:25 21,6 C 68 % 1017,3 hPa 0,0 l/m 0,0 km/h (0 Bft) N-NO 28 5 min 0,000 mm 1,0 UV-I 199 W/m 15,4 C 21,6 C 0,0 km/h (0 Bft) 0,00 %
09.08.2015 07:30 21,8 C 68 % 1017,5 hPa 0,0 l/m 0,0 km/h (0 Bft) NO 41 5 min 0,000 mm 1,0 UV-I 211 W/m 15,6 C 21,8 C 0,0 km/h (0 Bft) 0,00 %
09.08.2015 07:35 22,0 C 67 % 1017,3 hPa 0,0 l/m 0,0 km/h (0 Bft) NO 44 5 min 0,000 mm 1,0 UV-I 218 W/m 15,6 C 22,0 C 0,0 km/h (0 Bft) 0,00 %
09.08.2015 07:40 22,3 C 65 % 1017,5 hPa 0,0 l/m 0,0 km/h (0 Bft) NO 39 5 min 0,000 mm 1,0 UV-I 224 W/m 15,4 C 22,3 C 0,0 km/h (0 Bft) 0,00 %
09.08.2015 07:45 22,8 C 63 % 1017,3 hPa 0,0 l/m 0,0 km/h (0 Bft) NO 40 5 min 0,000 mm 1,0 UV-I 230 W/m 15,4 C 22,8 C 0,0 km/h (0 Bft) 0,00 %
09.08.2015 07:50 23,4 C 62 % 1017,4 hPa 0,0 l/m 0,0 km/h (0 Bft) NO 40 5 min 0,000 mm 1,0 UV-I 235 W/m 15,7 C 23,4 C 0,0 km/h (0 Bft) 0,00 %
09.08.2015 07:55 23,8 C 61 % 1017,3 hPa 0,0 l/m 0,0 km/h (0 Bft) NO 48 5 min 0,000 mm 1,0 UV-I 241 W/m 15,8 C 23,8 C 0,0 km/h (0 Bft) 0,00 %
09.08.2015 08:00 24,2 C 60 % 1017,4 hPa 0,0 l/m 0,0 km/h (0 Bft) O-NO 72 5 min 0,000 mm 1,0 UV-I 247 W/m 15,9 C 24,2 C 0,0 km/h (0 Bft) 0,00 %
09.08.2015 08:05 24,5 C 59 % 1017,3 hPa 0,0 l/m 0,0 km/h (0 Bft) N-NO 15 5 min 0,000 mm 1,0 UV-I 251 W/m 15,9 C 24,5 C 0,0 km/h (0 Bft) 0,00 %
09.08.2015 08:10 24,8 C 56 % 1017,2 hPa 0,0 l/m 0,0 km/h (0 Bft) O-NO 73 5 min 0,000 mm 1,0 UV-I 268 W/m 15,4 C 24,8 C 0,0 km/h (0 Bft) 0,00 %
09.08.2015 08:15 25,2 C 56 % 1017,2 hPa 0,0 l/m 0,0 km/h (0 Bft) O-NO 61 5 min 0,000 mm 1,0 UV-I 280 W/m 15,8 C 25,2 C 0,0 km/h (0 Bft) 0,00 %
09.08.2015 08:20 25,7 C 52 % 1017,2 hPa 0,0 l/m 0,0 km/h (0 Bft) O-NO 63 5 min 0,000 mm 1,0 UV-I 285 W/m 15,1 C 25,7 C 0,0 km/h (0 Bft) 0,00 %
09.08.2015 08:25 26,1 C 52 % 1017,0 hPa 0,0 l/m 0,0 km/h (0 Bft) O-NO 60 5 min 0,000 mm 1,0 UV-I 289 W/m 15,5 C 26,1 C 0,0 km/h (0 Bft) 0,00 %
09.08.2015 08:30 26,4 C 51 % 1017,1 hPa 0,0 l/m 0,0 km/h (0 Bft) O-NO 65 5 min 0,000 mm 1,0 UV-I 300 W/m 15,4 C 26,4 C 0,0 km/h (0 Bft) 0,00 %
09.08.2015 08:35 26,6 C 50 % 1017,3 hPa 0,0 l/m 0,0 km/h (0 Bft) O-SO 112 5 min 0,000 mm 1,0 UV-I 310 W/m 15,3 C 26,6 C 0,0 km/h (0 Bft) 0,00 %
09.08.2015 08:40 26,7 C 49 % 1017,3 hPa 0,0 l/m 0,0 km/h (0 Bft) O-NO 61 5 min 0,000 mm 1,0 UV-I 324 W/m 15,1 C 26,7 C 0,0 km/h (0 Bft) 0,00 %
09.08.2015 08:45 26,9 C 49 % 1017,2 hPa 0,0 l/m 0,0 km/h (0 Bft) NO 36 5 min 0,000 mm 1,0 UV-I 331 W/m 15,3 C 26,9 C 0,0 km/h (0 Bft) 0,00 %
09.08.2015 08:50 27,3 C 47 % 1017,2 hPa 0,0 l/m 0,0 km/h (0 Bft) NO 40 5 min 0,000 mm 1,0 UV-I 329 W/m 15,0 C 27,3 C 0,0 km/h (0 Bft) 0,00 %
09.08.2015 08:55 27,8 C 46 % 1017,2 hPa 0,0 l/m 0,0 km/h (0 Bft) NO 36 5 min 0,000 mm 1,0 UV-I 352 W/m 15,1 C 27,8 C 0,0 km/h (0 Bft) 0,00 %
09.08.2015 09:00 28,1 C 45 % 1017,0 hPa 0,0 l/m 0,4 km/h (0 Bft) O 80 5 min 0,000 mm 1,0 UV-I 361 W/m 15,0 C 28,1 C 4,0 km/h (1 Bft) 0,00 %
09.08.2015 09:05 28,2 C 45 % 1017,2 hPa 0,0 l/m 0,0 km/h (0 Bft) NO 49 5 min 0,000 mm 1,0 UV-I 372 W/m 15,1 C 28,2 C 0,0 km/h (0 Bft) 0,00 %
09.08.2015 09:10 28,6 C 43 % 1016,9 hPa 0,0 l/m 0,0 km/h (0 Bft) NO 43 5 min 0,000 mm 1,0 UV-I 381 W/m 14,8 C 28,6 C 0,0 km/h (0 Bft) 0,00 %
09.08.2015 09:15 29,0 C 44 % 1016,9 hPa 0,0 l/m 0,0 km/h (0 Bft) N-NO 25 5 min 0,000 mm 2,0 UV-I 394 W/m 15,5 C 29,0 C 0,0 km/h (0 Bft) 0,00 %
09.08.2015 09:20 29,2 C 43 % 1017,0 hPa 0,0 l/m 0,0 km/h (0 Bft) NO 55 5 min 0,000 mm 2,0 UV-I 403 W/m 15,3 C 29,2 C 0,0 km/h (0 Bft) 0,00 %
09.08.2015 09:25 29,4 C 43 % 1016,9 hPa 0,0 l/m 2,9 km/h (1 Bft) O-SO 115 5 min 0,000 mm 2,0 UV-I 414 W/m 15,5 C 29,4 C 4,0 km/h (1 Bft) 0,00 %
09.08.2015 09:30 29,4 C 42 % 1016,8 hPa 0,0 l/m 0,0 km/h (0 Bft) O-NO 60 5 min 0,000 mm 2,0 UV-I 417 W/m 15,1 C 29,4 C 0,0 km/h (0 Bft) 0,00 %
09.08.2015 09:35 29,4 C 44 % 1016,9 hPa 0,0 l/m 0,7 km/h (0 Bft) NO 35 5 min 0,000 mm 2,0 UV-I 414 W/m 15,8 C 29,4 C 4,0 km/h (1 Bft) 0,00 %
09.08.2015 09:40 29,4 C 44 % 1016,8 hPa 0,0 l/m 0,0 km/h (0 Bft) NO 46 5 min 0,000 mm 2,0 UV-I 436 W/m 15,8 C 29,4 C 0,0 km/h (0 Bft) 0,00 %
09.08.2015 09:45 29,6 C 42 % 1016,9 hPa 0,0 l/m 2,9 km/h (1 Bft) O-SO 104 5 min 0,000 mm 2,0 UV-I 454 W/m 15,3 C 29,6 C 4,0 km/h (1 Bft) 0,00 %
09.08.2015 09:50 29,6 C 43 % 1016,9 hPa 0,0 l/m 4,3 km/h (1 Bft) O-SO 115 5 min 0,000 mm 2,0 UV-I 469 W/m 15,7 C 29,6 C 7,9 km/h (2 Bft) 0,00 %
09.08.2015 09:55 29,6 C 42 % 1016,8 hPa 0,0 l/m 0,4 km/h (0 Bft) O-NO 58 5 min 0,000 mm 2,0 UV-I 478 W/m 15,3 C 29,6 C 4,0 km/h (1 Bft) 0,00 %
09.08.2015 10:00 29,4 C 44 % 1016,7 hPa 0,0 l/m 5,4 km/h (1 Bft) SO 146 5 min 0,000 mm 2,0 UV-I 489 W/m 15,8 C 29,4 C 7,9 km/h (2 Bft) 0,00 %
09.08.2015 10:05 29,2 C 43 % 1016,7 hPa 0,0 l/m 0,0 km/h (0 Bft) NO 54 5 min 0,000 mm 2,0 UV-I 497 W/m 15,3 C 29,2 C 0,0 km/h (0 Bft) 0,00 %
09.08.2015 10:10 29,2 C 43 % 1016,7 hPa 0,0 l/m 2,2 km/h (1 Bft) SO 136 5 min 0,000 mm 2,0 UV-I 504 W/m 15,3 C 29,2 C 4,0 km/h (1 Bft) 0,00 %
09.08.2015 10:15 29,3 C 43 % 1016,6 hPa 0,0 l/m 1,8 km/h (1 Bft) SO 142 5 min 0,000 mm 2,0 UV-I 518 W/m 15,4 C 29,3 C 4,0 km/h (1 Bft) 0,00 %
09.08.2015 10:20 29,3 C 43 % 1016,6 hPa 0,0 l/m 1,4 km/h (1 Bft) N 354 5 min 0,000 mm 2,0 UV-I 530 W/m 15,4 C 29,3 C 4,0 km/h (1 Bft) 0,00 %
09.08.2015 10:25 29,4 C 42 % 1016,6 hPa 0,0 l/m 3,2 km/h (1 Bft) SO 139 5 min 0,000 mm 2,0 UV-I 546 W/m 15,1 C 29,4 C 4,0 km/h (1 Bft) 0,00 %
09.08.2015 10:30 29,5 C 42 % 1016,7 hPa 0,0 l/m 5,8 km/h (2 Bft) O 86 5 min 0,000 mm 2,0 UV-I 559 W/m 15,2 C 29,5 C 7,9 km/h (2 Bft) 0,00 %
09.08.2015 10:35 29,5 C 42 % 1016,7 hPa 0,0 l/m 0,0 km/h (0 Bft) O-NO 69 5 min 0,000 mm 2,0 UV-I 572 W/m 15,2 C 29,5 C 0,0 km/h (0 Bft) 0,00 %
09.08.2015 10:40 29,8 C 42 % 1016,6 hPa 0,0 l/m 0,0 km/h (0 Bft) O-NO 75 5 min 0,000 mm 2,0 UV-I 583 W/m 15,5 C 29,8 C 0,0 km/h (0 Bft) 0,00 %
09.08.2015 10:45 30,1 C 40 % 1016,6 hPa 0,0 l/m 0,0 km/h (0 Bft) NO 43 5 min 0,000 mm 3,0 UV-I 603 W/m 15,0 C 30,1 C 0,0 km/h (0 Bft) 0,00 %
09.08.2015 10:50 30,4 C 41 % 1016,5 hPa 0,0 l/m 7,2 km/h (2 Bft) O 101 5 min 0,000 mm 3,0 UV-I 616 W/m 15,6 C 30,3 C 11,9 km/h (2 Bft) 0,00 %
09.08.2015 10:55 30,3 C 40 % 1016,4 hPa 0,0 l/m 4,0 km/h (1 Bft) O 95 5 min 0,000 mm 3,0 UV-I 628 W/m 15,2 C 30,3 C 7,9 km/h (2 Bft) 0,00 %
09.08.2015 11:00 30,1 C 41 % 1016,0 hPa 0,0 l/m 7,2 km/h (2 Bft) SO 130 5 min 0,000 mm 3,0 UV-I 637 W/m 15,4 C 30,0 C 11,9 km/h (2 Bft) 0,00 %
09.08.2015 11:05 30,2 C 41 % 1016,5 hPa 0,0 l/m 1,4 km/h (1 Bft) N 354 5 min 0,000 mm 3,0 UV-I 655 W/m 15,5 C 30,2 C 4,0 km/h (1 Bft) 0,00 %
09.08.2015 11:10 30,7 C 39 % 1016,4 hPa 0,0 l/m 4,0 km/h (1 Bft) SO 129 5 min 0,000 mm 3,0 UV-I 670 W/m 15,1 C 30,7 C 4,0 km/h (1 Bft) 0,00 %
09.08.2015 11:15 31,1 C 39 % 1016,2 hPa 0,0 l/m 0,4 km/h (0 Bft) NO 44 5 min 0,000 mm 3,0 UV-I 683 W/m 15,5 C 31,1 C 4,0 km/h (1 Bft) 0,00 %
09.08.2015 11:20 31,0 C 41 % 1016,4 hPa 0,0 l/m 0,0 km/h (0 Bft) W 271 5 min 0,000 mm 3,0 UV-I 688 W/m 16,2 C 31,0 C 0,0 km/h (0 Bft) 0,00 %
09.08.2015 11:25 30,7 C 40 % 1016,4 hPa 0,0 l/m 0,4 km/h (0 Bft) NW 312 5 min 0,000 mm 3,0 UV-I 697 W/m 15,5 C 30,7 C 4,0 km/h (1 Bft) 0,00 %
09.08.2015 11:30 30,8 C 40 % 1016,3 hPa 0,0 l/m 1,8 km/h (1 Bft) NO 40 5 min 0,000 mm 3,0 UV-I 707 W/m 15,6 C 30,8 C 4,0 km/h (1 Bft) 0,00 %
09.08.2015 11:35 30,8 C 40 % 1016,2 hPa 0,0 l/m 2,2 km/h (1 Bft) NW 324 5 min 0,000 mm 3,0 UV-I 715 W/m 15,6 C 30,8 C 4,0 km/h (1 Bft) 0,00 %
09.08.2015 11:40 30,8 C 40 % 1016,2 hPa 0,0 l/m 0,0 km/h (0 Bft) N 0 5 min 0,000 mm 3,0 UV-I 727 W/m 15,6 C 30,8 C 0,0 km/h (0 Bft) 0,00 %
09.08.2015 11:45 30,9 C 39 % 1016,2 hPa 0,0 l/m 2,9 km/h (1 Bft) W-NW 284 5 min 0,000 mm 3,0 UV-I 739 W/m 15,3 C 30,9 C 7,9 km/h (2 Bft) 0,00 %
09.08.2015 11:50 31,1 C 39 % 1016,0 hPa 0,0 l/m 0,0 km/h (0 Bft) NO 49 5 min 0,000 mm 3,0 UV-I 744 W/m 15,5 C 31,1 C 0,0 km/h (0 Bft) 0,00 %
09.08.2015 11:55 31,2 C 39 % 1016,0 hPa 0,0 l/m 0,0 km/h (0 Bft) NO 39 5 min 0,000 mm 4,0 UV-I 748 W/m 15,6 C 31,2 C 0,0 km/h (0 Bft) 0,00 %
09.08.2015 12:00 31,3 C 38 % 1016,2 hPa 0,0 l/m 0,0 km/h (0 Bft) N-NO 16 5 min 0,000 mm 4,0 UV-I 755 W/m 15,3 C 31,3 C 0,0 km/h (0 Bft) 0,00 %
09.08.2015 12:05 31,4 C 39 % 1016,0 hPa 0,0 l/m 0,4 km/h (0 Bft) O-NO 63 5 min 0,000 mm 4,0 UV-I 761 W/m 15,7 C 31,4 C 4,0 km/h (1 Bft) 0,00 %
09.08.2015 12:10 31,5 C 38 % 1016,0 hPa 0,0 l/m 3,2 km/h (1 Bft) O-SO 103 5 min 0,000 mm 4,0 UV-I 767 W/m 15,4 C 31,5 C 4,0 km/h (1 Bft) 0,00 %
09.08.2015 12:15 31,5 C 39 % 1015,8 hPa 0,0 l/m 0,4 km/h (0 Bft) NO 51 5 min 0,000 mm 4,0 UV-I 770 W/m 15,8 C 31,5 C 4,0 km/h (1 Bft) 0,00 %
09.08.2015 12:20 31,5 C 38 % 1015,7 hPa 0,0 l/m 0,0 km/h (0 Bft) NO 35 5 min 0,000 mm 4,0 UV-I 771 W/m 15,4 C 31,5 C 0,0 km/h (0 Bft) 0,00 %
09.08.2015 12:25 31,4 C 38 % 1015,8 hPa 0,0 l/m 5,4 km/h (1 Bft) S-SO 148 5 min 0,000 mm 4,0 UV-I 782 W/m 15,3 C 31,4 C 7,9 km/h (2 Bft) 0,00 %
09.08.2015 12:30 31,3 C 39 % 1015,6 hPa 0,0 l/m 0,0 km/h (0 Bft) NO 48 5 min 0,000 mm 4,0 UV-I 790 W/m 15,7 C 31,3 C 0,0 km/h (0 Bft) 0,00 %
09.08.2015 12:35 31,4 C 38 % 1015,7 hPa 0,0 l/m 0,7 km/h (0 Bft) NO 37 5 min 0,000 mm 4,0 UV-I 792 W/m 15,3 C 31,4 C 4,0 km/h (1 Bft) 0,00 %
09.08.2015 12:40 31,4 C 38 % 1015,6 hPa 0,0 l/m 0,0 km/h (0 Bft) O-NO 77 5 min 0,000 mm 4,0 UV-I 799 W/m 15,3 C 31,4 C 0,0 km/h (0 Bft) 0,00 %
09.08.2015 12:45 31,5 C 37 % 1015,5 hPa 0,0 l/m 0,4 km/h (0 Bft) O-SO 114 5 min 0,000 mm 4,0 UV-I 802 W/m 15,0 C 31,5 C 4,0 km/h (1 Bft) 0,00 %
09.08.2015 12:50 31,7 C 37 % 1015,5 hPa 0,0 l/m 2,2 km/h (1 Bft) O 91 5 min 0,000 mm 4,0 UV-I 808 W/m 15,2 C 31,7 C 4,0 km/h (1 Bft) 0,00 %
09.08.2015 12:55 31,8 C 38 % 1015,3 hPa 0,0 l/m 6,5 km/h (2 Bft) O-SO 122 5 min 0,000 mm 4,0 UV-I 812 W/m 15,7 C 31,8 C 7,9 km/h (2 Bft) 0,00 %
09.08.2015 13:00 31,9 C 38 % 1015,5 hPa 0,0 l/m 0,0 km/h (0 Bft) O-NO 60 5 min 0,000 mm 4,0 UV-I 812 W/m 15,8 C 31,9 C 0,0 km/h (0 Bft) 0,00 %
09.08.2015 13:05 31,9 C 38 % 1015,3 hPa 0,0 l/m 2,9 km/h (1 Bft) SO 134 5 min 0,000 mm 4,0 UV-I 819 W/m 15,8 C 31,9 C 4,0 km/h (1 Bft) 0,00 %
09.08.2015 13:10 32,0 C 38 % 1015,2 hPa 0,0 l/m 3,2 km/h (1 Bft) N-NW 342 5 min 0,000 mm 4,0 UV-I 824 W/m 15,9 C 32,0 C 4,0 km/h (1 Bft) 0,00 %
09.08.2015 13:15 32,2 C 36 % 1015,2 hPa 0,0 l/m 0,4 km/h (0 Bft) O-NO 75 5 min 0,000 mm 4,0 UV-I 828 W/m 15,2 C 32,2 C 4,0 km/h (1 Bft) 0,00 %
09.08.2015 13:20 32,3 C 37 % 1015,2 hPa 0,0 l/m 2,2 km/h (1 Bft) NO 52 5 min 0,000 mm 4,0 UV-I 834 W/m 15,7 C 32,3 C 7,9 km/h (2 Bft) 0,00 %
09.08.2015 13:25 32,3 C 37 % 1015,1 hPa 0,0 l/m 0,7 km/h (0 Bft) NO 40 5 min 0,000 mm 4,0 UV-I 843 W/m 15,7 C 32,3 C 4,0 km/h (1 Bft) 0,00 %
09.08.2015 13:30 32,3 C 37 % 1015,2 hPa 0,0 l/m 3,2 km/h (1 Bft) O-NO 74 5 min 0,000 mm 4,0 UV-I 845 W/m 15,7 C 32,3 C 4,0 km/h (1 Bft) 0,00 %
09.08.2015 13:35 32,4 C 36 % 1015,1 hPa 0,0 l/m 5,4 km/h (1 Bft) O-SO 115 5 min 0,000 mm 4,0 UV-I 847 W/m 15,4 C 32,4 C 7,9 km/h (2 Bft) 0,00 %
09.08.2015 13:40 32,5 C 36 % 1015,2 hPa 0,0 l/m 0,0 km/h (0 Bft) N-NO 26 5 min 0,000 mm 4,0 UV-I 841 W/m 15,5 C 32,5 C 0,0 km/h (0 Bft) 0,00 %
09.08.2015 13:45 32,6 C 35 % 1015,0 hPa 0,0 l/m 0,7 km/h (0 Bft) NO 53 5 min 0,000 mm 4,0 UV-I 855 W/m 15,1 C 32,6 C 4,0 km/h (1 Bft) 0,00 %
09.08.2015 13:50 32,8 C 34 % 1014,9 hPa 0,0 l/m 0,0 km/h (0 Bft) N 352 5 min 0,000 mm 4,0 UV-I 858 W/m 14,8 C 32,8 C 0,0 km/h (0 Bft) 0,00 %
09.08.2015 13:55 33,0 C 33 % 1014,9 hPa 0,0 l/m 0,4 km/h (0 Bft) O 81 5 min 0,000 mm 4,0 UV-I 868 W/m 14,5 C 33,0 C 4,0 km/h (1 Bft) 0,00 %
09.08.2015 14:00 33,2 C 33 % 1014,7 hPa 0,0 l/m 5,4 km/h (1 Bft) O 81 5 min 0,000 mm 4,0 UV-I 870 W/m 14,7 C 33,2 C 7,9 km/h (2 Bft) 0,00 %
09.08.2015 14:05 33,3 C 34 % 1014,7 hPa 0,0 l/m 1,4 km/h (1 Bft) O 101 5 min 0,000 mm 4,0 UV-I 874 W/m 15,3 C 33,3 C 4,0 km/h (1 Bft) 0,00 %
09.08.2015 14:10 33,3 C 32 % 1014,8 hPa 0,0 l/m 4,0 km/h (1 Bft) O-NO 57 5 min 0,000 mm 4,0 UV-I 881 W/m 14,3 C 33,3 C 7,9 km/h (2 Bft) 0,00 %
09.08.2015 14:15 33,3 C 32 % 1014,8 hPa 0,0 l/m 0,0 km/h (0 Bft) NO 40 5 min 0,000 mm 4,0 UV-I 887 W/m 14,3 C 33,3 C 0,0 km/h (0 Bft) 0,00 %
09.08.2015 14:20 33,3 C 32 % 1014,7 hPa 0,0 l/m 0,7 km/h (0 Bft) N 353 5 min 0,000 mm 3,0 UV-I 874 W/m 14,3 C 33,3 C 4,0 km/h (1 Bft) 0,00 %
09.08.2015 14:25 33,4 C 31 % 1014,6 hPa 0,0 l/m 8,3 km/h (2 Bft) O 85 5 min 0,000 mm 3,0 UV-I 881 W/m 13,9 C 33,4 C 11,9 km/h (2 Bft) 0,00 %
09.08.2015 14:30 33,6 C 31 % 1014,7 hPa 0,0 l/m 0,0 km/h (0 Bft) NO 43 5 min 0,000 mm 4,0 UV-I 898 W/m 14,1 C 33,6 C 0,0 km/h (0 Bft) 0,00 %
09.08.2015 14:35 33,8 C 30 % 1014,5 hPa 0,0 l/m 10,4 km/h (2 Bft) O 100 5 min 0,000 mm 3,0 UV-I 914 W/m 13,8 C 33,8 C 15,8 km/h (3 Bft) 0,00 %
09.08.2015 14:40 34,1 C 30 % 1014,3 hPa 0,0 l/m 4,7 km/h (1 Bft) O 87 5 min 0,000 mm 3,0 UV-I 902 W/m 14,0 C 34,1 C 7,9 km/h (2 Bft) 0,00 %
09.08.2015 14:45 34,1 C 30 % 1014,4 hPa 0,0 l/m 0,4 km/h (0 Bft) N-NO 18 5 min 0,000 mm 3,0 UV-I 896 W/m 14,0 C 34,1 C 4,0 km/h (1 Bft) 0,00 %
09.08.2015 14:50 34,1 C 30 % 1014,3 hPa 0,0 l/m 4,0 km/h (1 Bft) O-NO 62 5 min 0,000 mm 3,0 UV-I 903 W/m 14,0 C 34,1 C 7,9 km/h (2 Bft) 0,00 %
09.08.2015 14:55 34,2 C 30 % 1014,3 hPa 0,0 l/m 0,0 km/h (0 Bft) S 183 5 min 0,000 mm 3,0 UV-I 910 W/m 14,1 C 34,2 C 0,0 km/h (0 Bft) 0,00 %
09.08.2015 15:00 34,4 C 30 % 1014,2 hPa 0,0 l/m 3,2 km/h (1 Bft) O 100 5 min 0,000 mm 3,0 UV-I 911 W/m 14,3 C 34,4 C 4,0 km/h (1 Bft) 0,00 %
09.08.2015 15:05 34,5 C 30 % 1014,2 hPa 0,0 l/m 0,7 km/h (0 Bft) O-NO 60 5 min 0,000 mm 3,0 UV-I 889 W/m 14,4 C 34,5 C 4,0 km/h (1 Bft) 0,00 %
09.08.2015 15:10 34,5 C 30 % 1014,0 hPa 0,0 l/m 3,2 km/h (1 Bft) NO 43 5 min 0,000 mm 3,0 UV-I 887 W/m 14,4 C 34,5 C 7,9 km/h (2 Bft) 0,00 %
09.08.2015 15:15 34,5 C 30 % 1014,0 hPa 0,0 l/m 0,4 km/h (0 Bft) NO 38 5 min 0,000 mm 3,0 UV-I 895 W/m 14,4 C 34,5 C 4,0 km/h (1 Bft) 0,00 %
09.08.2015 15:20 34,5 C 30 % 1013,8 hPa 0,0 l/m 0,0 km/h (0 Bft) O 98 5 min 0,000 mm 3,0 UV-I 905 W/m 14,4 C 34,5 C 0,0 km/h (0 Bft) 0,00 %
09.08.2015 15:25 34,3 C 29 % 1013,9 hPa 0,0 l/m 0,4 km/h (0 Bft) O 101 5 min 0,000 mm 3,0 UV-I 945 W/m 13,7 C 34,3 C 4,0 km/h (1 Bft) 0,00 %
09.08.2015 15:30 34,4 C 28 % 1013,8 hPa 0,0 l/m 1,4 km/h (1 Bft) N-NW 341 5 min 0,000 mm 3,0 UV-I 961 W/m 13,2 C 34,4 C 4,0 km/h (1 Bft) 0,00 %
09.08.2015 15:35 34,8 C 27 % 1013,8 hPa 0,0 l/m 4,7 km/h (1 Bft) O-SO 120 5 min 0,000 mm 3,0 UV-I 973 W/m 13,0 C 34,8 C 7,9 km/h (2 Bft) 0,00 %
09.08.2015 15:40 35,1 C 28 % 1013,7 hPa 0,0 l/m 7,2 km/h (2 Bft) N 5 5 min 0,000 mm 2,0 UV-I 936 W/m 13,8 C 35,1 C 11,9 km/h (2 Bft) 0,00 %
09.08.2015 15:45 34,8 C 29 % 1013,8 hPa 0,0 l/m 11,5 km/h (2 Bft) O-SO 121 5 min 0,000 mm 2,0 UV-I 859 W/m 14,1 C 34,8 C 11,9 km/h (2 Bft) 0,00 %
09.08.2015 15:50 34,5 C 28 % 1013,8 hPa 0,0 l/m 0,0 km/h (0 Bft) O-NO 74 5 min 0,000 mm 2,0 UV-I 852 W/m 13,3 C 34,5 C 0,0 km/h (0 Bft) 0,00 %
09.08.2015 15:55 34,2 C 28 % 1013,7 hPa 0,0 l/m 3,2 km/h (1 Bft) O 82 5 min 0,000 mm 2,0 UV-I 937 W/m 13,0 C 34,2 C 4,0 km/h (1 Bft) 0,00 %
09.08.2015 16:00 34,3 C 28 % 1013,7 hPa 0,0 l/m 4,0 km/h (1 Bft) NO 42 5 min 0,000 mm 2,0 UV-I 853 W/m 13,1 C 34,3 C 7,9 km/h (2 Bft) 0,00 %
09.08.2015 16:05 34,7 C 27 % 1013,5 hPa 0,0 l/m 0,0 km/h (0 Bft) O-NO 63 5 min 0,000 mm 2,0 UV-I 806 W/m 12,9 C 34,7 C 0,0 km/h (0 Bft) 0,00 %
09.08.2015 16:10 35,1 C 25 % 1013,4 hPa 0,0 l/m 0,0 km/h (0 Bft) N 354 5 min 0,000 mm 2,0 UV-I 400 W/m 12,1 C 35,1 C 0,0 km/h (0 Bft) 0,00 %
09.08.2015 16:15 35,3 C 26 % 1013,2 hPa 0,0 l/m 4,0 km/h (1 Bft) O 81 5 min 0,000 mm 2,0 UV-I 753 W/m 12,8 C 35,3 C 7,9 km/h (2 Bft) 0,00 %
09.08.2015 16:20 35,0 C 29 % 1013,2 hPa 0,0 l/m 5,8 km/h (2 Bft) O-NO 65 5 min 0,000 mm 2,0 UV-I 695 W/m 14,3 C 35,0 C 7,9 km/h (2 Bft) 0,00 %
09.08.2015 16:25 34,7 C 28 % 1012,9 hPa 0,0 l/m 3,2 km/h (1 Bft) O 93 5 min 0,000 mm 2,0 UV-I 772 W/m 13,5 C 34,7 C 4,0 km/h (1 Bft) 0,00 %
09.08.2015 16:30 34,7 C 27 % 1013,2 hPa 0,0 l/m 9,0 km/h (2 Bft) O-NO 74 5 min 0,000 mm 2,0 UV-I 732 W/m 12,9 C 34,7 C 11,9 km/h (2 Bft) 0,00 %
09.08.2015 16:35 34,8 C 27 % 1013,2 hPa 0,0 l/m 6,8 km/h (2 Bft) SO 135 5 min 0,000 mm 1,0 UV-I 666 W/m 13,0 C 34,8 C 11,9 km/h (2 Bft) 0,00 %
09.08.2015 16:40 34,6 C 27 % 1013,2 hPa 0,0 l/m 5,8 km/h (2 Bft) NW 310 0 min 0,000 mm 1,0 UV-I 296 W/m 12,8 C 34,6 C 11,9 km/h (2 Bft) 0,00 %
09.08.2015 16:45 34,2 C 31 % 1013,0 hPa 0,0 l/m 4,0 km/h (1 Bft) S-SO 147 0 min 0,000 mm 1,0 UV-I 303 W/m 14,6 C 34,2 C 7,9 km/h (2 Bft) 0,00 %
09.08.2015 16:50 33,7 C 31 % 1013,1 hPa 0,0 l/m 4,7 km/h (1 Bft) O 87 0 min 0,000 mm 1,0 UV-I 277 W/m 14,2 C 33,7 C 7,9 km/h (2 Bft) 0,00 %
09.08.2015 16:55 33,4 C 31 % 1013,0 hPa 0,0 l/m 1,4 km/h (1 Bft) SO 143 0 min 0,000 mm 1,0 UV-I 285 W/m 13,9 C 33,4 C 4,0 km/h (1 Bft) 0,00 %
09.08.2015 17:00 33,2 C 31 % 1013,0 hPa 0,0 l/m 8,3 km/h (2 Bft) O-SO 103 0 min 0,000 mm 1,0 UV-I 271 W/m 13,8 C 33,2 C 11,9 km/h (2 Bft) 0,00 %
09.08.2015 17:05 33,1 C 32 % 1012,9 hPa 0,0 l/m 4,7 km/h (1 Bft) O-SO 107 0 min 0,000 mm 1,0 UV-I 269 W/m 14,2 C 33,1 C 7,9 km/h (2 Bft) 0,00 %
09.08.2015 17:10 33,0 C 31 % 1012,9 hPa 0,0 l/m 0,7 km/h (0 Bft) O 83 5 min 0,000 mm 1,0 UV-I 296 W/m 13,6 C 33,0 C 4,0 km/h (1 Bft) 0,00 %
09.08.2015 17:15 33,0 C 31 % 1012,8 hPa 0,0 l/m 0,0 km/h (0 Bft) SO 130 5 min 0,000 mm 1,0 UV-I 677 W/m 13,6 C 33,0 C 0,0 km/h (0 Bft) 0,00 %
09.08.2015 17:20 33,1 C 31 % 1013,0 hPa 0,0 l/m 0,0 km/h (0 Bft) O 86 5 min 0,000 mm 1,0 UV-I 731 W/m 13,7 C 33,1 C 0,0 km/h (0 Bft) 0,00 %
09.08.2015 17:25 33,5 C 28 % 1013,0 hPa 0,0 l/m 2,9 km/h (1 Bft) O 101 5 min 0,000 mm 1,0 UV-I 781 W/m 12,5 C 33,5 C 4,0 km/h (1 Bft) 0,00 %
09.08.2015 17:30 34,1 C 26 % 1013,0 hPa 0,0 l/m 0,0 km/h (0 Bft) O 90 5 min 0,000 mm 1,0 UV-I 798 W/m 11,8 C 34,1 C 0,0 km/h (0 Bft) 0,00 %
09.08.2015 17:35 34,5 C 26 % 1012,9 hPa 0,0 l/m 2,2 km/h (1 Bft) NO 45 5 min 0,000 mm 1,0 UV-I 803 W/m 12,2 C 34,5 C 4,0 km/h (1 Bft) 0,00 %
09.08.2015 17:40 34,8 C 26 % 1012,7 hPa 0,0 l/m 2,9 km/h (1 Bft) O-SO 102 5 min 0,000 mm 1,0 UV-I 620 W/m 12,4 C 34,8 C 4,0 km/h (1 Bft) 0,00 %
09.08.2015 17:45 35,1 C 26 % 1012,7 hPa 0,0 l/m 1,8 km/h (1 Bft) O-NO 76 5 min 0,000 mm 1,0 UV-I 576 W/m 12,7 C 35,1 C 4,0 km/h (1 Bft) 0,00 %
09.08.2015 17:50 35,1 C 27 % 1012,7 hPa 0,0 l/m 3,2 km/h (1 Bft) O-NO 59 5 min 0,000 mm 1,0 UV-I 653 W/m 13,3 C 35,1 C 7,9 km/h (2 Bft) 0,00 %
09.08.2015 17:55 34,7 C 25 % 1012,8 hPa 0,0 l/m 4,0 km/h (1 Bft) O-SO 102 5 min 0,000 mm 1,0 UV-I 687 W/m 11,7 C 34,7 C 4,0 km/h (1 Bft) 0,00 %
09.08.2015 18:00 34,5 C 25 % 1012,9 hPa 0,0 l/m 5,8 km/h (2 Bft) S 183 5 min 0,000 mm 1,0 UV-I 593 W/m 11,6 C 34,5 C 7,9 km/h (2 Bft) 0,00 %
09.08.2015 18:05 34,4 C 25 % 1012,7 hPa 0,0 l/m 0,0 km/h (0 Bft) NO 52 5 min 0,000 mm 1,0 UV-I 406 W/m 11,5 C 34,4 C 0,0 km/h (0 Bft) 0,00 %
09.08.2015 18:10 34,3 C 25 % 1012,6 hPa 0,0 l/m 0,7 km/h (0 Bft) O-SO 104 5 min 0,000 mm 1,0 UV-I 373 W/m 11,4 C 34,3 C 4,0 km/h (1 Bft) 0,00 %
09.08.2015 18:15 34,1 C 29 % 1012,5 hPa 0,0 l/m 1,8 km/h (1 Bft) SO 138 5 min 0,000 mm 1,0 UV-I 221 W/m 13,5 C 34,1 C 4,0 km/h (1 Bft) 0,00 %
09.08.2015 18:20 33,6 C 30 % 1012,4 hPa 0,0 l/m 9,0 km/h (2 Bft) O-SO 106 5 min 0,000 mm 1,0 UV-I 199 W/m 13,6 C 33,6 C 11,9 km/h (2 Bft) 0,00 %
09.08.2015 18:25 33,0 C 32 % 1012,4 hPa 0,0 l/m 5,4 km/h (1 Bft) S 175 0 min 0,000 mm 1,0 UV-I 156 W/m 14,1 C 33,0 C 7,9 km/h (2 Bft) 0,00 %
09.08.2015 18:30 32,6 C 31 % 1012,4 hPa 0,0 l/m 5,4 km/h (1 Bft) O 79 0 min 0,000 mm 1,0 UV-I 134 W/m 13,2 C 32,6 C 7,9 km/h (2 Bft) 0,00 %
09.08.2015 18:35 32,3 C 32 % 1012,4 hPa 0,0 l/m 0,4 km/h (0 Bft) NO 55 0 min 0,000 mm 1,0 UV-I 120 W/m 13,5 C 32,3 C 4,0 km/h (1 Bft) 0,00 %
09.08.2015 18:40 32,1 C 29 % 1012,2 hPa 0,0 l/m 0,7 km/h (0 Bft) O-SO 122 0 min 0,000 mm 1,0 UV-I 111 W/m 11,8 C 32,1 C 4,0 km/h (1 Bft) 0,00 %
09.08.2015 18:45 31,8 C 29 % 1012,2 hPa 0,0 l/m 5,8 km/h (2 Bft) O-SO 109 0 min 0,000 mm 0,0 UV-I 106 W/m 11,5 C 31,8 C 7,9 km/h (2 Bft) 0,00 %
09.08.2015 18:50 31,7 C 29 % 1012,3 hPa 0,0 l/m 5,8 km/h (2 Bft) O 81 0 min 0,000 mm 0,0 UV-I 101 W/m 11,5 C 31,7 C 7,9 km/h (2 Bft) 0,00 %
09.08.2015 18:55 31,5 C 29 % 1012,1 hPa 0,0 l/m 4,0 km/h (1 Bft) O-NO 59 0 min 0,000 mm 0,0 UV-I 97 W/m 11,3 C 31,5 C 7,9 km/h (2 Bft) 0,00 %
09.08.2015 19:00 31,4 C 29 % 1012,3 hPa 0,0 l/m 0,4 km/h (0 Bft) O 99 0 min 0,000 mm 0,0 UV-I 96 W/m 11,2 C 31,4 C 4,0 km/h (1 Bft) 0,00 %
09.08.2015 19:05 31,3 C 30 % 1012,2 hPa 0,0 l/m 0,0 km/h (0 Bft) O-SO 118 0 min 0,000 mm 0,0 UV-I 108 W/m 11,6 C 31,3 C 0,0 km/h (0 Bft) 0,00 %
09.08.2015 19:10 31,1 C 30 % 1012,1 hPa 0,0 l/m 0,0 km/h (0 Bft) NO 54 5 min 0,000 mm 0,0 UV-I 156 W/m 11,5 C 31,1 C 0,0 km/h (0 Bft) 0,00 %
09.08.2015 19:15 31,0 C 31 % 1012,1 hPa 0,0 l/m 0,0 km/h (0 Bft) SO 131 5 min 0,000 mm 0,0 UV-I 199 W/m 11,9 C 31,0 C 0,0 km/h (0 Bft) 0,00 %
09.08.2015 19:20 30,9 C 30 % 1012,1 hPa 0,0 l/m 4,3 km/h (1 Bft) O-NO 61 5 min 0,000 mm 0,0 UV-I 203 W/m 11,3 C 30,9 C 7,9 km/h (2 Bft) 0,00 %
09.08.2015 19:25 31,0 C 30 % 1012,0 hPa 0,0 l/m 0,0 km/h (0 Bft) O 87 5 min 0,000 mm 0,0 UV-I 158 W/m 11,4 C 31,0 C 0,0 km/h (0 Bft) 0,00 %
09.08.2015 19:30 31,0 C 31 % 1012,3 hPa 0,0 l/m 2,9 km/h (1 Bft) O 91 5 min 0,000 mm 0,0 UV-I 110 W/m 11,9 C 31,0 C 4,0 km/h (1 Bft) 0,00 %
09.08.2015 19:35 31,0 C 32 % 1012,2 hPa 0,0 l/m 0,4 km/h (0 Bft) O-NO 74 5 min 0,000 mm 0,0 UV-I 120 W/m 12,3 C 31,0 C 4,0 km/h (1 Bft) 0,00 %
09.08.2015 19:40 30,9 C 32 % 1012,3 hPa 0,0 l/m 2,9 km/h (1 Bft) SO 136 5 min 0,000 mm 0,0 UV-I 111 W/m 12,3 C 30,9 C 4,0 km/h (1 Bft) 0,00 %
09.08.2015 19:45 30,7 C 32 % 1012,2 hPa 0,0 l/m 0,0 km/h (0 Bft) O-NO 73 5 min 0,000 mm 0,0 UV-I 78 W/m 12,1 C 30,7 C 0,0 km/h (0 Bft) 0,00 %
09.08.2015 19:50 30,6 C 32 % 1012,4 hPa 0,0 l/m 0,0 km/h (0 Bft) O-NO 60 5 min 0,000 mm 0,0 UV-I 69 W/m 12,0 C 30,6 C 0,0 km/h (0 Bft) 0,00 %
09.08.2015 19:55 30,4 C 33 % 1012,4 hPa 0,0 l/m 0,0 km/h (0 Bft) NO 43 5 min 0,000 mm 0,0 UV-I 51 W/m 12,3 C 30,4 C 0,0 km/h (0 Bft) 0,00 %
09.08.2015 20:00 30,1 C 34 % 1012,4 hPa 0,0 l/m 0,0 km/h (0 Bft) NO 37 5 min 0,000 mm 0,0 UV-I 42 W/m 12,5 C 30,1 C 0,0 km/h (0 Bft) 0,00 %
09.08.2015 20:05 29,8 C 34 % 1012,4 hPa 0,0 l/m 4,7 km/h (1 Bft) O 91 5 min 0,000 mm 0,0 UV-I 33 W/m 12,2 C 29,8 C 7,9 km/h (2 Bft) 0,00 %
09.08.2015 20:10 29,7 C 34 % 1012,4 hPa 0,0 l/m 0,4 km/h (0 Bft) O-NO 70 5 min 0,000 mm 0,0 UV-I 24 W/m 12,1 C 29,7 C 4,0 km/h (1 Bft) 0,00 %
09.08.2015 20:15 29,5 C 35 % 1012,4 hPa 0,0 l/m 0,0 km/h (0 Bft) O-NO 61 5 min 0,000 mm 0,0 UV-I 17 W/m 12,4 C 29,5 C 0,0 km/h (0 Bft) 0,00 %
09.08.2015 20:20 29,3 C 36 % 1012,4 hPa 0,0 l/m 2,9 km/h (1 Bft) O-SO 114 0 min 0,000 mm 0,0 UV-I 6 W/m 12,7 C 29,3 C 4,0 km/h (1 Bft) 0,00 %
09.08.2015 20:25 29,2 C 36 % 1012,4 hPa 0,0 l/m 0,0 km/h (0 Bft) NO 51 0 min 0,000 mm 0,0 UV-I 0 W/m 12,6 C 29,2 C 0,0 km/h (0 Bft) 0,00 %
09.08.2015 20:30 28,9 C 38 % 1012,4 hPa 0,0 l/m 0,0 km/h (0 Bft) O-NO 60 0 min 0,000 mm 0,0 UV-I 0 W/m 13,1 C 28,9 C 0,0 km/h (0 Bft) 0,00 %
09.08.2015 20:35 28,6 C 39 % 1012,5 hPa 0,0 l/m 0,7 km/h (0 Bft) NO 38 0 min 0,000 mm 0,0 UV-I 0 W/m 13,3 C 28,6 C 4,0 km/h (1 Bft) 0,00 %
09.08.2015 20:41 28,3 C 39 % 1012,3 hPa 0,0 l/m 0,0 km/h (0 Bft) O 79 0 min 0,000 mm 0,0 UV-I 0 W/m 13,0 C 28,3 C 0,0 km/h (0 Bft) 0,00 %
09.08.2015 20:46 28,1 C 40 % 1012,3 hPa 0,0 l/m 0,0 km/h (0 Bft) N 349 0 min 0,000 mm 0,0 UV-I 0 W/m 13,2 C 28,1 C 0,0 km/h (0 Bft) 0,00 %
09.08.2015 20:51 28,0 C 42 % 1012,5 hPa 0,0 l/m 0,0 km/h (0 Bft) NO 47 0 min 0,000 mm 0,0 UV-I 0 W/m 13,9 C 28,0 C 0,0 km/h (0 Bft) 0,00 %
09.08.2015 20:56 27,8 C 42 % 1012,4 hPa 0,0 l/m 0,0 km/h (0 Bft) O-NO 60 0 min 0,000 mm 0,0 UV-I 0 W/m 13,7 C 27,8 C 0,0 km/h (0 Bft) 0,00 %
09.08.2015 21:01 27,6 C 42 % 1012,3 hPa 0,0 l/m 0,0 km/h (0 Bft) NO 56 0 min 0,000 mm 0,0 UV-I 0 W/m 13,5 C 27,6 C 0,0 km/h (0 Bft) 0,00 %
09.08.2015 21:06 27,3 C 43 % 1012,7 hPa 0,0 l/m 0,0 km/h (0 Bft) O-NO 68 0 min 0,000 mm 0,0 UV-I 0 W/m 13,6 C 27,3 C 0,0 km/h (0 Bft) 0,00 %
09.08.2015 21:11 27,1 C 41 % 1012,5 hPa 0,0 l/m 0,4 km/h (0 Bft) O-SO 119 0 min 0,000 mm 0,0 UV-I 0 W/m 12,7 C 27,1 C 4,0 km/h (1 Bft) 0,00 %
09.08.2015 21:16 26,9 C 43 % 1012,5 hPa 0,0 l/m 0,0 km/h (0 Bft) NO 51 0 min 0,000 mm 0,0 UV-I 0 W/m 13,2 C 26,9 C 0,0 km/h (0 Bft) 0,00 %
09.08.2015 21:21 26,7 C 42 % 1012,6 hPa 0,0 l/m 0,0 km/h (0 Bft) N-NO 33 0 min 0,000 mm 0,0 UV-I 0 W/m 12,7 C 26,7 C 0,0 km/h (0 Bft) 0,00 %
09.08.2015 21:26 26,5 C 43 % 1012,6 hPa 0,0 l/m 0,0 km/h (0 Bft) O-SO 114 0 min 0,000 mm 0,0 UV-I 0 W/m 12,9 C 26,5 C 0,0 km/h (0 Bft) 0,00 %
09.08.2015 21:31 26,4 C 44 % 1012,6 hPa 0,0 l/m 0,0 km/h (0 Bft) O-SO 108 0 min 0,000 mm 0,0 UV-I 0 W/m 13,1 C 26,4 C 0,0 km/h (0 Bft) 0,00 %
09.08.2015 21:36 26,4 C 43 % 1012,7 hPa 0,0 l/m 0,0 km/h (0 Bft) SO 129 0 min 0,000 mm 0,0 UV-I 0 W/m 12,8 C 26,4 C 0,0 km/h (0 Bft) 0,00 %
09.08.2015 21:41 26,4 C 44 % 1012,6 hPa 0,0 l/m 0,0 km/h (0 Bft) NO 50 0 min 0,000 mm 0,0 UV-I 0 W/m 13,1 C 26,4 C 0,0 km/h (0 Bft) 0,00 %
09.08.2015 21:46 26,4 C 43 % 1012,7 hPa 0,0 l/m 0,0 km/h (0 Bft) SO 124 0 min 0,000 mm 0,0 UV-I 0 W/m 12,8 C 26,4 C 0,0 km/h (0 Bft) 0,00 %
09.08.2015 21:51 26,3 C 43 % 1012,7 hPa 0,0 l/m 0,0 km/h (0 Bft) O-SO 106 0 min 0,000 mm 0,0 UV-I 0 W/m 12,7 C 26,3 C 0,0 km/h (0 Bft) 0,00 %
09.08.2015 21:56 26,3 C 43 % 1012,7 hPa 0,0 l/m 0,0 km/h (0 Bft) O-NO 61 0 min 0,000 mm 0,0 UV-I 0 W/m 12,7 C 26,3 C 0,0 km/h (0 Bft) 0,00 %
09.08.2015 22:01 26,1 C 44 % 1012,7 hPa 0,0 l/m 0,0 km/h (0 Bft) O 88 0 min 0,000 mm 0,0 UV-I 0 W/m 12,9 C 26,1 C 0,0 km/h (0 Bft) 0,00 %
09.08.2015 22:06 26,0 C 43 % 1012,5 hPa 0,0 l/m 0,0 km/h (0 Bft) O-NO 70 0 min 0,000 mm 0,0 UV-I 0 W/m 12,4 C 26,0 C 0,0 km/h (0 Bft) 0,00 %
09.08.2015 22:11 26,0 C 44 % 1012,6 hPa 0,0 l/m 0,0 km/h (0 Bft) NO 55 0 min 0,000 mm 0,0 UV-I 0 W/m 12,8 C 26,0 C 0,0 km/h (0 Bft) 0,00 %
09.08.2015 22:16 25,9 C 46 % 1012,8 hPa 0,0 l/m 2,2 km/h (1 Bft) O 91 0 min 0,000 mm 0,0 UV-I 0 W/m 13,4 C 25,9 C 4,0 km/h (1 Bft) 0,00 %
09.08.2015 22:21 25,8 C 44 % 1012,6 hPa 0,0 l/m 0,0 km/h (0 Bft) N-NO 32 0 min 0,000 mm 0,0 UV-I 0 W/m 12,6 C 25,8 C 0,0 km/h (0 Bft) 0,00 %
09.08.2015 22:26 25,7 C 45 % 1012,8 hPa 0,0 l/m 0,0 km/h (0 Bft) O 87 0 min 0,000 mm 0,0 UV-I 0 W/m 12,9 C 25,7 C 0,0 km/h (0 Bft) 0,00 %
09.08.2015 22:31 25,7 C 45 % 1012,7 hPa 0,0 l/m 0,0 km/h (0 Bft) O 83 0 min 0,000 mm 0,0 UV-I 0 W/m 12,9 C 25,7 C 0,0 km/h (0 Bft) 0,00 %
09.08.2015 22:36 25,5 C 46 % 1013,0 hPa 0,0 l/m 0,0 km/h (0 Bft) O-NO 70 0 min 0,000 mm 0,0 UV-I 0 W/m 13,0 C 25,5 C 0,0 km/h (0 Bft) 0,00 %
09.08.2015 22:41 25,3 C 47 % 1013,0 hPa 0,0 l/m 0,0 km/h (0 Bft) O-SO 102 0 min 0,000 mm 0,0 UV-I 0 W/m 13,2 C 25,3 C 0,0 km/h (0 Bft) 0,00 %
09.08.2015 22:46 25,0 C 49 % 1012,9 hPa 0,0 l/m 0,0 km/h (0 Bft) O-NO 67 0 min 0,000 mm 0,0 UV-I 0 W/m 13,5 C 25,0 C 0,0 km/h (0 Bft) 0,00 %
09.08.2015 22:51 24,7 C 50 % 1013,0 hPa 0,0 l/m 0,0 km/h (0 Bft) O-NO 73 0 min 0,000 mm 0,0 UV-I 0 W/m 13,6 C 24,7 C 0,0 km/h (0 Bft) 0,00 %
09.08.2015 22:56 24,6 C 50 % 1013,0 hPa 0,0 l/m 0,0 km/h (0 Bft) O-NO 70 0 min 0,000 mm 0,0 UV-I 0 W/m 13,5 C 24,6 C 0,0 km/h (0 Bft) 0,00 %
09.08.2015 23:01 24,4 C 50 % 1013,3 hPa 0,0 l/m 0,0 km/h (0 Bft) O 96 0 min 0,000 mm 0,0 UV-I 0 W/m 13,3 C 24,4 C 0,0 km/h (0 Bft) 0,00 %
09.08.2015 23:06 24,3 C 51 % 1013,3 hPa 0,0 l/m 0,0 km/h (0 Bft) O-NO 77 0 min 0,000 mm 0,0 UV-I 0 W/m 13,5 C 24,3 C 0,0 km/h (0 Bft) 0,00 %
09.08.2015 23:11 24,2 C 51 % 1013,2 hPa 0,0 l/m 0,7 km/h (0 Bft) O-SO 110 0 min 0,000 mm 0,0 UV-I 0 W/m 13,4 C 24,2 C 4,0 km/h (1 Bft) 0,00 %
09.08.2015 23:16 24,0 C 51 % 1013,3 hPa 0,0 l/m 0,0 km/h (0 Bft) O 79 0 min 0,000 mm 0,0 UV-I 0 W/m 13,2 C 24,0 C 0,0 km/h (0 Bft) 0,00 %
09.08.2015 23:21 24,0 C 53 % 1013,4 hPa 0,0 l/m 0,0 km/h (0 Bft) O-NO 63 0 min 0,000 mm 0,0 UV-I 0 W/m 13,8 C 24,0 C 0,0 km/h (0 Bft) 0,00 %
09.08.2015 23:26 23,9 C 53 % 1013,5 hPa 0,0 l/m 0,0 km/h (0 Bft) O 81 0 min 0,000 mm 0,0 UV-I 0 W/m 13,7 C 23,9 C 0,0 km/h (0 Bft) 0,00 %
09.08.2015 23:31 23,7 C 53 % 1013,6 hPa 0,0 l/m 0,7 km/h (0 Bft) O-SO 117 0 min 0,000 mm 0,0 UV-I 0 W/m 13,5 C 23,7 C 4,0 km/h (1 Bft) 0,00 %
09.08.2015 23:36 23,6 C 53 % 1013,6 hPa 0,0 l/m 0,0 km/h (0 Bft) O 81 0 min 0,000 mm 0,0 UV-I 0 W/m 13,4 C 23,6 C 0,0 km/h (0 Bft) 0,00 %
09.08.2015 23:41 23,5 C 53 % 1013,7 hPa 0,0 l/m 0,0 km/h (0 Bft) O 97 0 min 0,000 mm 0,0 UV-I 0 W/m 13,4 C 23,5 C 0,0 km/h (0 Bft) 0,00 %
09.08.2015 23:46 23,4 C 54 % 1013,6 hPa 0,0 l/m 1,4 km/h (1 Bft) O-NO 57 0 min 0,000 mm 0,0 UV-I 0 W/m 13,6 C 23,4 C 4,0 km/h (1 Bft) 0,00 %
09.08.2015 23:51 23,3 C 54 % 1013,6 hPa 0,0 l/m 0,0 km/h (0 Bft) NO 53 0 min 0,000 mm 0,0 UV-I 0 W/m 13,5 C 23,3 C 0,0 km/h (0 Bft) 0,00 %
09.08.2015 23:56 23,2 C 54 % 1013,6 hPa 0,0 l/m 0,7 km/h (0 Bft) N 355 0 min 0,000 mm 0,0 UV-I 0 W/m 13,4 C 23,2 C 4,0 km/h (1 Bft) 0,00 %
_ Min-Zeit 06:00 16:10 19:25 - 00:24 - - - - - - 19:00 06:00 00:24 00:04
Minimum _ 17,2 C 25 % 1012,0 hPa - 0,0 km/h (0 Bft) - - - - - - 11,2 C 17,2 C 0,0 km/h (0 Bft) 0,00 %
_ Max-Zeit 16:15 05:45 02:04 00:04 15:45 - - 06:30 00:04 11:55 15:35 11:20 16:15 14:35 00:04
Maximum _ 35,3 C 87 % 1017,8 hPa 0,0 l/m 11,5 km/h
O-SO (2 Bft)
- - 5 min 0,000 mm 4,0 UV-I 973 W/m 16,2 C 35,3 C 15,8 km/h
O (3 Bft)
0,00 %
Durchschnitt _ 26,9 C 50 % 1015,3 hPa #0,0 l/m 1,2 km/h (1 Bft) O - #12:35 h #0,000 mm 2,3 UV-I 494 W/m 14,4 C 26,9 C 2,3 km/h (1 Bft) 0,00 %